Location: L�Ave Maria
(50.7161°N, 1.5911°E)
Time: 23:14:25
(UTC+00:00)

Meteor 2-3 Rocket - Pass Details

Date: 10 July 2020
Orbit: 843 x 884 km, 81.2° (Epoch: 14 August)

Event Time Altitude Azimuth Distance (km) Brightness Sun altitude
Exits shadow 22:40:15 23° 156° (SSE) 1,757 4.7 -15.2°
Maximum altitude 22:43:32 48° 94° (E) 1,125 4.2 -15.3°
Drops below altitude 10° 22:49:01 10° 22° (NNE) 2,533 6.9 -15.6°
Sets 22:51:32 0° 17° (NNE) 3,482 7.9 -15.7°
